Surface/Precipitation History
02/26/2015 22:22  to  2/27/2015 22:22
Change End Date:
Date/Time
(MST)
Sf
Temp Chem Water Layer Surface Precipitation
Sf Sub Frz Factor Pct Depth IcePct Cond Salin Type Intens Accum Rate
02/27/2015 22:12 Ice Watch 16.9F 23F - 80 - - - 0 mhos 171 None None - -
02/27/2015 22:11 Ice Watch 16.9F 23F - 80 - - - 0 mhos 172 None None - -
02/27/2015 22:01 Ice Watch 17.1F 23F - 80 - - - 0 mhos 168 None None - -
02/27/2015 21:57 Ice Watch 17.2F 23F - 85 - - - 0 mhos 164 None None - -
02/27/2015 21:51 Ice Watch 17.4F 23F - 85 - - - 0 mhos 161 None None - -
02/27/2015 21:42 Ice Watch 17.6F 23F - 85 - - - 0 mhos 158 None None - -
02/27/2015 21:41 Ice Watch 17.6F 24F - 85 - - - 0 mhos 158 None None - -
02/27/2015 21:31 Ice Watch 18.0F 24F - 85 - - - 0 mhos 150 None None - -
02/27/2015 21:27 Ice Watch 18.1F 24F - 90 - - - 0 mhos 145 None None - -
02/27/2015 21:21 Ice Watch 18.3F 24F - 90 - - - 0 mhos 142 None None - -
02/27/2015 21:12 Ice Watch 18.7F 25F - 95 - - - 0 mhos 135 None None - -
02/27/2015 21:11 Ice Watch 18.7F 25F - 95 - - - 0 mhos 135 None None - -
02/27/2015 21:01 Ice Watch 19.0F 25F - 95 - - - 0 mhos 128 None None - -
02/27/2015 20:57 Ice Watch 19.2F 25F - 95 - - - 0 mhos 125 None None - -
02/27/2015 20:51 Ice Watch 19.2F 25F - 85 - - - 0 mhos 123 None None - -
Date/Time
(MST)
Sf
Temp Chem Water Layer Surface Precipitation
Sf Sub Frz Factor Pct Depth IcePct Cond Salin Type Intens Accum Rate
02/27/2015 20:42 Ice Watch 19.9F 26F - 85 - - - 0 mhos 115 None None - -
02/27/2015 20:41 Ice Watch 19.9F 26F - 85 - - - 0 mhos 115 None None - -
02/27/2015 20:31 Ice Watch 20.3F 26F - 85 - - - 0 mhos 107 None None - -
02/27/2015 20:27 Ice Watch 20.5F 26F - 85 - - - 0 mhos 102 None None - -
02/27/2015 20:21 Ice Watch 20.7F 26F - 75 - - - 0 mhos 92 None None - -
02/27/2015 20:12 Ice Watch 21.0F 27F - 15 - - - 0 mhos 64 None None - -
02/27/2015 20:11 Ice Watch 21.0F 27F - 5 - - - 0 mhos 55 None None - -
02/27/2015 20:01 Ice Watch 21.4F 27F - 5 - - - 0 mhos 18 None None - -
02/27/2015 19:57 Ice Watch 21.6F 28F - 5 - - - 0 mhos 3 None None - -
02/27/2015 19:51 Ice Watch 21.7F 28F - 5 - - - 0 mhos 2 None None - -
02/27/2015 19:42 Ice Watch 21.9F 28F - 5 - - - 0 mhos 1 None None - -
02/27/2015 19:41 Ice Watch 21.9F 28F - 5 - - - 0 mhos 1 None None - -
02/27/2015 19:31 Ice Watch 22.1F 29F - 15 - - - 0 mhos 0 None None - -
02/27/2015 19:27 Ice Watch 22.1F 29F - 15 - - - 0 mhos 0 None None - -
02/27/2015 19:21 Ice Watch 22.3F 29F - 15 - - - 0 mhos 0 None None - -
Date/Time
(MST)
Sf
Temp Chem Water Layer Surface Precipitation
Sf Sub Frz Factor Pct Depth IcePct Cond Salin Type Intens Accum Rate
02/27/2015 19:12 Ice Watch 22.6F 29F - 20 - - - 0 mhos 0 None None - -
02/27/2015 19:11 Ice Watch 22.8F 29F - 20 - - - 0 mhos 0 None None - -
02/27/2015 19:01 Ice Watch 23.4F 30F - 25 - - - 0 mhos 0 None None - -
02/27/2015 18:57 Ice Watch 23.5F 30F - 25 - - - 0 mhos 0 None None - -
02/27/2015 18:51 Ice Watch 24.1F 30F - 25 - - - 0 mhos 0 None None - -
02/27/2015 18:42 Ice Watch 24.4F 30F - 30 - - - 0 mhos 0 None None - -
02/27/2015 18:40 Ice Watch 24.6F 30F - 30 - - - 0 mhos 0 None None - -
02/27/2015 18:30 Ice Watch 25.3F 31F - 30 - - - 0 mhos 0 None None - -
02/27/2015 18:27 Ice Watch 25.5F 31F - 30 - - - 0 mhos 0 None None - -
02/27/2015 18:20 Ice Watch 25.9F 31F - 30 - - - 0 mhos 0 None None - -
02/27/2015 18:12 Ice Watch 26.4F 31F - 35 - - - 0 mhos 0 None None - -
02/27/2015 18:10 Ice Watch 26.4F 31F - 35 - - - 0 mhos 0 None None - -
02/27/2015 18:00 Ice Watch 27.3F 31F - 5 - - - 0 mhos 0 None None - -
02/27/2015 17:57 Ice Watch 27.7F 31F - 5 - - - 0 mhos 0 None None - -
02/27/2015 17:50 Ice Watch 28.2F 32F - 5 - - - 0 mhos 0 None None - -
Date/Time
(MST)
Sf
Temp Chem Water Layer Surface Precipitation
Sf Sub Frz Factor Pct Depth IcePct Cond Salin Type Intens Accum Rate
02/27/2015 17:42 Ice Watch 28.8F 32F - 5 - - - 0 mhos 0 None None - -
02/27/2015 17:40 Ice Watch 29.1F 32F - 5 - - - 0 mhos 0 None None - -
02/27/2015 17:30 Ice Watch 30.2F 33F - 5 - - - 0 mhos 0 None None - -
02/27/2015 17:27 Ice Watch 30.6F 33F - 5 - - - 0 mhos 0 None None - -
02/27/2015 17:20 Ice Watch 31.3F 34F - 5 - - - 0 mhos 0 None None - -
02/27/2015 17:12 Trace Moisture 32.4F 35F - 5 - - - 0 mhos 0 None None - -
02/27/2015 17:10 Trace Moisture 32.7F 35F - 5 - - - 0 mhos 0 None None - -
02/27/2015 17:00 Trace Moisture 34.5F 36F - 5 - - - 0 mhos 0 None None - -
02/27/2015 16:57 Trace Moisture 34.7F 36F - 5 - - - 0 mhos 0 None None - -
02/27/2015 16:50 Trace Moisture 36.1F 37F - 5 - - - 0 mhos 0 None None - -
02/27/2015 16:42 Trace Moisture 37.0F 37F - 5 - - - 0 mhos 0 None None - -
02/27/2015 16:40 Trace Moisture 37.2F 37F - 5 - - - 0 mhos 0 None None - -
02/27/2015 16:30 Trace Moisture 39.2F 38F - 5 - - - 0 mhos 0 None None - -
02/27/2015 16:27 Trace Moisture 39.4F 38F - 5 - - - 0 mhos 0 None None - -
02/27/2015 16:20 Trace Moisture 40.5F 38F - 5 - - - 0 mhos 0 None None - -
Date/Time
(MST)
Sf
Temp Chem Water Layer Surface Precipitation
Sf Sub Frz Factor Pct Depth IcePct Cond Salin Type Intens Accum Rate
02/27/2015 16:12 Dry 41.9F 39F - - - - - 0 mhos 0 None None - -
02/27/2015 16:10 Dry 42.3F 39F - - - - - 0 mhos 0 None None - -
02/27/2015 16:00 Dry 43.2F 39F - - - - - 0 mhos 0 None None - -
02/27/2015 15:57 Dry 42.6F 39F - - - - - 0 mhos 0 None None - -
02/27/2015 15:50 Dry 43.2F 39F - - - - - 0 mhos 0 None None - -
02/27/2015 15:42 Dry 44.6F 40F - - - - - 0 mhos 0 None None - -
02/27/2015 15:40 Dry 44.6F 40F - - - - - 0 mhos 0 None None - -
02/27/2015 15:30 Dry 44.4F 40F - - - - - 0 mhos 0 None None - -
02/27/2015 15:27 Dry 44.4F 41F - - - - - 0 mhos 0 None None - -
02/27/2015 15:20 Dry 45.9F 41F - - - - - 0 mhos 0 None None - -
02/27/2015 15:12 Dry 46.2F 41F - - - - - 0 mhos 0 None None - -
02/27/2015 15:10 Dry 46.9F 41F - - - - - 0 mhos 0 None None - -
02/27/2015 15:00 Dry 49.8F 42F - - - - - 0 mhos 0 None None - -
02/27/2015 14:57 Dry 49.8F 42F - - - - - 0 mhos 0 None None - -
02/27/2015 14:50 Dry 50.4F 42F - - - - - 0 mhos 0 None None - -
Date/Time
(MST)
Sf
Temp Chem Water Layer Surface Precipitation
Sf Sub Frz Factor Pct Depth IcePct Cond Salin Type Intens Accum Rate
02/27/2015 14:42 Dry 50.7F 42F - - - - - 0 mhos 0 None None - -
02/27/2015 14:39 Dry 50.9F 42F - - - - - 0 mhos 0 None None - -
02/27/2015 14:29 Dry 51.1F 42F - - - - - 0 mhos 0 None None - -
02/27/2015 14:27 Dry 51.3F 42F - - - - - 0 mhos 0 None None - -
02/27/2015 14:19 Dry 51.8F 42F - - - - - 0 mhos 0 None None - -
02/27/2015 14:12 Dry 52.2F 42F - - - - - 0 mhos 0 None None - -
02/27/2015 14:09 Dry 52.3F 42F - - - - - 0 mhos 0 None None - -
02/27/2015 13:59 Dry 52.9F 41F - - - - - 0 mhos 0 None None - -
02/27/2015 13:57 Dry 53.1F 41F - - - - - 0 mhos 0 None None - -
02/27/2015 13:49 Dry 53.2F 41F - - - - - 0 mhos 0 None None - -
02/27/2015 13:42 Dry 53.6F 40F - - - - - 0 mhos 0 None None - -
02/27/2015 13:39 Dry 53.6F 40F - - - - - 0 mhos 0 None None - -
02/27/2015 13:29 Dry 52.9F 40F - - - - - 0 mhos 0 None None - -
02/27/2015 13:27 Dry 52.9F 40F - - - - - 0 mhos 0 None None - -
02/27/2015 13:19 Dry 52.5F 39F - - - - - 0 mhos 0 None None - -
Date/Time
(MST)
Sf
Temp Chem Water Layer Surface Precipitation
Sf Sub Frz Factor Pct Depth IcePct Cond Salin Type Intens Accum Rate
02/27/2015 13:12 Dry 52.2F 39F - - - - - 0 mhos 0 None None - -
02/27/2015 13:09 Dry 52.5F 39F - - - - - 0 mhos 0 None None - -
02/27/2015 12:59 Dry 52.3F 38F - - - - - 0 mhos 0 None None - -
02/27/2015 12:57 Dry 52.2F 38F - - - - - 0 mhos 0 None None - -
02/27/2015 12:49 Dry 52.2F 37F - - - - - 0 mhos 0 None None - -
02/27/2015 12:42 Dry 51.6F 37F - - - - - 0 mhos 0 None None - -
02/27/2015 12:39 Dry 51.8F 36F - - - - - 0 mhos 0 None None - -
02/27/2015 12:29 Dry 50.7F 35F - - - - - 0 mhos 0 None None - -
02/27/2015 12:27 Dry 50.4F 35F - - - - - 0 mhos 0 None None - -
02/27/2015 12:19 Dry 48.9F 34F - - - - - 0 mhos 0 None None - -
02/27/2015 12:12 Dry 48.4F 33F - - - - - 0 mhos 0 None None - -
02/27/2015 12:09 Trace Moisture 47.5F 33F - 5 - - - 0 mhos 0 None None - -
02/27/2015 11:59 Dry 47.1F 32F - - - - - 0 mhos 0 None None - -
02/27/2015 11:57 Dry 47.3F 31F - - - - - 0 mhos 0 None None - -
02/27/2015 11:49 Dry 45.7F 30F - - - - - 0 mhos 0 None None - -
Date/Time
(MST)
Sf
Temp Chem Water Layer Surface Precipitation
Sf Sub Frz Factor Pct Depth IcePct Cond Salin Type Intens Accum Rate
02/27/2015 11:42 Dry 43.7F 30F - - - - - 0 mhos 0 None None - -
02/27/2015 11:39 Dry 43.2F 30F - - - - - 0 mhos 0 None None - -
02/27/2015 11:29 Dry 40.5F 29F - - - - - 0 mhos 0 None None - -
02/27/2015 11:27 Dry 40.5F 29F - - - - - 0 mhos 0 None None - -
02/27/2015 11:18 Dry 40.6F 29F - - - - - 0 mhos 5 None None - -
02/27/2015 11:12 Dry 38.8F 28F - - - - - 0 mhos 13 None None - -
02/27/2015 11:08 Dry 38.5F 28F - - - - - 0 mhos 21 None None - -
02/27/2015 10:58 Dry 36.5F 28F - - - - - 0 mhos 45 None None - -
02/27/2015 10:57 Dry 35.8F 28F - - - - - 1 mhos 52 None None - -
02/27/2015 10:48 Dry 34.7F 27F - - - - - 1 mhos 108 None None - -
02/27/2015 10:42 Dry 34.3F 27F - - - - - 1 mhos 142 None None - -
02/27/2015 10:38 Dry 34.5F 26F - - - - - 2 mhos 159 None None - -
02/27/2015 10:28 Dry 34.9F 25F - - - - - 2 mhos 227 None None - -
02/27/2015 10:27 Dry 34.5F 25F - - - - - 2 mhos 235 None None - -
02/27/2015 10:18 Dry 34.5F 24F - - - - - 3 mhos 332 None None - -
Date/Time
(MST)
Sf
Temp Chem Water Layer Surface Precipitation
Sf Sub Frz Factor Pct Depth IcePct Cond Salin Type Intens Accum Rate
02/27/2015 10:12 Trace Moisture 33.1F 23F - 5 - - - 4 mhos 398 None None - -
02/27/2015 10:08 Dry 32.5F 23F - - - - - 4 mhos 430 None None - -
02/27/2015 09:58 Dry 29.7F 22F - - - - - 4 mhos 527 None None - -
02/27/2015 09:57 Dry 29.8F 21F - - - - - 4 mhos 517 None None - -
02/27/2015 09:48 Dry 27.5F 20F - - - - - 3 mhos 375 None None - -
02/27/2015 09:42 Dry 25.5F 19F - - - - - 2 mhos 345 None None - -
02/27/2015 09:38 Dry 24.6F 19F - - - - - 2 mhos 345 None None - -
02/27/2015 09:28 Ice Watch 21.2F 18F - 25 - - - 1 mhos 328 None None - -
02/27/2015 09:27 Ice Watch 21.4F 18F - 30 - - - 1 mhos 327 None None - -
02/27/2015 09:18 Ice Watch 21.2F 17F - 20 - - - 1 mhos 358 None None - -
02/27/2015 09:12 Ice Watch 19.8F 17F - 5 - - - 1 mhos 377 None None - -
02/27/2015 09:08 Ice Watch 19.2F 16F - 5 - - - 1 mhos 411 None None - -
02/27/2015 08:58 Ice Watch 17.8F 15F - 5 - - - 1 mhos 444 None None - -
02/27/2015 08:57 Ice Watch 17.6F 15F - 10 - - - 1 mhos 445 None None - -
02/27/2015 08:48 Ice Watch 16.3F 15F - 10 - - - 1 mhos 498 None None - -
Date/Time
(MST)
Sf
Temp Chem Water Layer Surface Precipitation
Sf Sub Frz Factor Pct Depth IcePct Cond Salin Type Intens Accum Rate
02/27/2015 08:42 Ice Watch 14.9F 14F - 15 - - - 1 mhos 514 None None - -
02/27/2015 08:38 Ice Watch 14.7F 14F - 20 - - - 1 mhos 524 None None - -
02/27/2015 08:28 Ice Watch 11.3F 13F - 30 - - - 1 mhos 650 None None - -
02/27/2015 08:27 Ice Watch 10.9F 13F - 30 - - - 1 mhos 659 None None - -
02/27/2015 08:18 Ice Watch 10.2F 13F - 30 - - - 1 mhos 680 None None - -
02/27/2015 08:12 Ice Watch 10.0F 13F - 25 - - - 1 mhos 696 None None - -
02/27/2015 08:08 Ice Watch 10.0F 12F - 25 - - - 1 mhos 705 None None - -
02/27/2015 07:58 Ice Watch 9.5F 12F - 25 - - - 1 mhos 714 None None - -
02/27/2015 07:57 Ice Watch 9.5F 12F - 25 - - - 1 mhos 717 None None - -
02/27/2015 07:48 Ice Watch 9.0F 12F - 25 - - - 1 mhos 739 None None - -
02/27/2015 07:42 Ice Watch 8.6F 12F - 25 - - - 1 mhos 758 None None - -
02/27/2015 07:37 Ice Watch 8.4F 12F - 25 - - - 1 mhos 763 None None - -
02/27/2015 07:27 Ice Watch 8.1F 12F - 25 - - - 1 mhos 785 None None - -
02/27/2015 07:27 Ice Watch 8.1F 12F - 25 - - - 1 mhos 781 None None - -
02/27/2015 07:17 Ice Watch 7.7F 12F - 25 - - - 1 mhos 804 None None - -
Date/Time
(MST)
Sf
Temp Chem Water Layer Surface Precipitation
Sf Sub Frz Factor Pct Depth IcePct Cond Salin Type Intens Accum Rate
02/27/2015 07:12 Ice Watch 7.7F 12F - 25 - - - 1 mhos 796 None None - -
02/27/2015 07:07 Ice Watch 7.7F 12F - 25 - - - 1 mhos 804 None None - -
02/27/2015 06:57 Ice Watch 7.5F 12F - 30 - - - 1 mhos 818 None None - -
02/27/2015 06:57 Ice Watch 7.7F 12F - 30 - - - 1 mhos 808 None None - -
02/27/2015 06:47 Ice Watch 7.5F 12F - 25 - - - 1 mhos 792 None None - -
02/27/2015 06:42 Ice Watch 7.5F 12F - 25 - - - 1 mhos 795 None None - -
02/27/2015 06:37 Ice Watch 7.5F 12F - 25 - - - 1 mhos 795 None None - -
02/27/2015 06:27 Ice Watch 7.5F 12F - 25 - - - 1 mhos 799 None None - -
02/27/2015 06:27 Ice Watch 7.5F 12F - 25 - - - 1 mhos 799 None None - -
02/27/2015 06:17 Ice Watch 7.5F 12F - 25 - - - 1 mhos 806 None None - -
02/27/2015 06:12 Ice Watch 7.5F 12F - 25 - - - 1 mhos 803 None None - -
02/27/2015 06:07 Ice Watch 7.7F 12F - 25 - - - 1 mhos 800 None None - -
02/27/2015 05:57 Ice Watch 7.7F 12F - 25 - - - 1 mhos 793 None None - -
02/27/2015 05:57 Ice Watch 7.7F 12F - 25 - - - 1 mhos 793 None None - -
02/27/2015 05:47 Ice Watch 7.9F 12F - 25 - - - 1 mhos 794 None None - -
Date/Time
(MST)
Sf
Temp Chem Water Layer Surface Precipitation
Sf Sub Frz Factor Pct Depth IcePct Cond Salin Type Intens Accum Rate
02/27/2015 05:42 Ice Watch 8.1F 12F - 25 - - - 1 mhos 792 None None - -
02/27/2015 05:37 Ice Watch 8.1F 12F - 25 - - - 1 mhos 796 None None - -
02/27/2015 05:27 Ice Watch 8.1F 12F - 25 - - - 1 mhos 805 None None - -
02/27/2015 05:27 Ice Watch 8.1F 12F - 25 - - - 1 mhos 805 None None - -
02/27/2015 05:17 Ice Watch 8.1F 12F - 20 - - - 2 mhos 1185 None None - -
02/27/2015 05:12 Ice Watch 8.1F 12F - 20 - - - 2 mhos 1182 None None - -
02/27/2015 05:07 Ice Watch 7.9F 12F - 20 - - - 2 mhos 1188 None None - -
02/27/2015 04:57 Ice Watch 7.9F 12F - 20 - - - 2 mhos 1188 None None - -
02/27/2015 04:57 Ice Watch 7.9F 12F - 20 - - - 2 mhos 1188 None None - -
02/27/2015 04:47 Ice Watch 7.9F 13F - 20 - - - 2 mhos 1197 None None - -
02/27/2015 04:42 Ice Watch 8.1F 13F - 20 - - - 2 mhos 1182 None None - -
02/27/2015 04:37 Ice Watch 7.9F 13F - 25 - - - 2 mhos 1196 None None - -
02/27/2015 04:27 Ice Watch 8.1F 13F - 25 - - - 2 mhos 1207 None None - -
02/27/2015 04:27 Ice Watch 8.1F 13F - 25 - - - 2 mhos 1207 None None - -
02/27/2015 04:17 Ice Watch 8.2F 13F - 25 - - - 2 mhos 1187 None None - -
Date/Time
(MST)
Sf
Temp Chem Water Layer Surface Precipitation
Sf Sub Frz Factor Pct Depth IcePct Cond Salin Type Intens Accum Rate
02/27/2015 04:12 Ice Watch 8.4F 13F - 30 - - - 2 mhos 1173 None None - -
02/27/2015 04:07 Ice Watch 8.4F 13F - 30 - - - 2 mhos 1181 None None - -
02/27/2015 03:57 Ice Watch 9.0F 13F - 35 - - - 2 mhos 1164 None None - -
02/27/2015 03:57 Ice Watch 8.8F 13F - 35 - - - 2 mhos 1179 None None - -
02/27/2015 03:46 Ice Watch 9.0F 13F - 35 - - - 2 mhos 1164 None None - -
02/27/2015 03:42 Ice Watch 9.1F 13F - 35 - - - 2 mhos 1150 None None - -
02/27/2015 03:36 Ice Watch 9.1F 13F - 35 - - - 2 mhos 1159 None None - -
02/27/2015 03:27 Ice Watch 9.1F 13F - 25 - - - 2 mhos 1151 None None - -
02/27/2015 03:26 Ice Watch 9.1F 13F - 25 - - - 2 mhos 1142 None None - -
02/27/2015 03:16 Ice Watch 9.1F 13F - 25 - - - 2 mhos 1137 None None - -
02/27/2015 03:12 Ice Watch 9.1F 13F - 25 - - - 2 mhos 1145 None None - -
02/27/2015 03:06 Ice Watch 9.1F 13F - 25 - - - 2 mhos 1145 None None - -
02/27/2015 02:57 Ice Watch 9.1F 13F - 25 - - - 2 mhos 1137 None None - -
02/27/2015 02:56 Ice Watch 9.1F 13F - 25 - - - 2 mhos 1137 None None - -
02/27/2015 02:46 Ice Watch 9.1F 14F - 25 - - - 2 mhos 1145 None None - -
Date/Time
(MST)
Sf
Temp Chem Water Layer Surface Precipitation
Sf Sub Frz Factor Pct Depth IcePct Cond Salin Type Intens Accum Rate
02/27/2015 02:42 Ice Watch 9.1F 14F - 25 - - - 2 mhos 1145 None None - -
02/27/2015 02:36 Ice Watch 9.3F 14F - 25 - - - 2 mhos 1140 None None - -
02/27/2015 02:27 Ice Watch 9.5F 14F - 25 - - - 2 mhos 1135 None None - -
02/27/2015 02:26 Ice Watch 9.7F 14F - 25 - - - 2 mhos 1130 None None - -
02/27/2015 02:16 Ice Watch 9.7F 14F - 25 - - - 2 mhos 1130 None None - -
02/27/2015 02:12 Ice Watch 9.7F 14F - 25 - - - 2 mhos 1121 None None - -
02/27/2015 02:06 Ice Watch 9.9F 14F - 25 - - - 2 mhos 1116 None None - -
02/27/2015 01:57 Ice Watch 9.7F 14F - 25 - - - 2 mhos 1148 None None - -
02/27/2015 01:56 Ice Watch 9.9F 14F - 25 - - - 2 mhos 1143 None None - -
02/27/2015 01:46 Ice Watch 10.0F 14F - 25 - - - 2 mhos 1129 None None - -
02/27/2015 01:42 Ice Watch 10.0F 14F - 25 - - - 2 mhos 1138 None None - -
02/27/2015 01:36 Ice Watch 10.0F 14F - 25 - - - 2 mhos 1134 None None - -
02/27/2015 01:27 Ice Watch 10.0F 14F - 30 - - - 2 mhos 1134 None None - -
02/27/2015 01:26 Ice Watch 10.0F 14F - 30 - - - 2 mhos 1143 None None - -
02/27/2015 01:16 Ice Watch 10.2F 15F - 30 - - - 2 mhos 1129 None None - -
Date/Time
(MST)
Sf
Temp Chem Water Layer Surface Precipitation
Sf Sub Frz Factor Pct Depth IcePct Cond Salin Type Intens Accum Rate
02/27/2015 01:12 Ice Watch 10.2F 15F - 30 - - - 2 mhos 1138 None None - -
02/27/2015 01:06 Ice Watch 10.2F 15F - 30 - - - 2 mhos 1138 None None - -
02/27/2015 00:57 Ice Watch 10.4F 15F - 30 - - - 2 mhos 1124 None None - -
02/27/2015 00:56 Ice Watch 10.4F 15F - 30 - - - 2 mhos 1124 None None - -
02/27/2015 00:46 Ice Watch 10.4F 15F - 30 - - - 2 mhos 1143 None None - -
02/27/2015 00:42 Ice Watch 10.4F 15F - 30 - - - 2 mhos 1134 None None - -
02/27/2015 00:36 Ice Watch 10.6F 15F - 30 - - - 2 mhos 1120 None None - -
02/27/2015 00:27 Ice Watch 10.6F 15F - 30 - - - 2 mhos 1139 None None - -
02/27/2015 00:25 Ice Watch 10.8F 15F - 30 - - - 2 mhos 1125 None None - -
02/27/2015 00:15 Ice Watch 10.9F 15F - 30 - - - 2 mhos 1112 None None - -
02/27/2015 00:12 Ice Watch 10.9F 15F - 30 - - - 2 mhos 1121 None None - -
02/27/2015 00:05 Ice Watch 10.9F 15F - 30 - - - 2 mhos 1107 None None - -
02/26/2015 23:55 Ice Watch 11.1F 15F - 35 - - - 2 mhos 1103 None None - -
02/26/2015 23:45 Ice Watch 11.3F 16F - 35 - - - 2 mhos 1109 None None - -
02/26/2015 23:42 Ice Watch 11.3F 16F - 35 - - - 2 mhos 1100 None None - -
Date/Time
(MST)
Sf
Temp Chem Water Layer Surface Precipitation
Sf Sub Frz Factor Pct Depth IcePct Cond Salin Type Intens Accum Rate
02/26/2015 23:35 Ice Watch 11.3F 16F - 35 - - - 2 mhos 1109 None None - -
02/26/2015 23:27 Ice Watch 11.3F 16F - 40 - - - 2 mhos 1109 None None - -
02/26/2015 23:25 Ice Watch 11.3F 16F - 40 - - - 2 mhos 1109 None None - -
02/26/2015 23:15 Ice Watch 11.1F 16F - 40 - - - 2 mhos 1113 None None - -
02/26/2015 23:12 Ice Watch 11.3F 16F - 40 - - - 2 mhos 1109 None None - -
02/26/2015 23:05 Ice Watch 11.3F 16F - 40 - - - 2 mhos 1109 None None - -
02/26/2015 22:57 Ice Watch 11.5F 16F - 40 - - - 2 mhos 1095 None None - -
02/26/2015 22:55 Ice Watch 11.5F 16F - 40 - - - 2 mhos 1095 None None - -
02/26/2015 22:45 Ice Watch 11.3F 16F - 40 - - - 2 mhos 1119 None None - -
02/26/2015 22:42 Ice Watch 11.5F 16F - 40 - - - 2 mhos 1105 None None - -
02/26/2015 22:35 Ice Watch 11.7F 16F - 40 - - - 2 mhos 1092 None None - -
02/26/2015 22:27 Ice Watch 11.7F 16F - 40 - - - 2 mhos 1091 None None - -
02/26/2015 22:25 Ice Watch 11.7F 16F - 45 - - - 2 mhos 1091 None None - -
Change End Date:
Copyright © 1998-2005 Surface Systems, Inc.
All Rights Reserved
Send comments about the data to:
SCAN Web ® is a registered trademark of Surface Systems, Inc.
SCAN Web Version 5.6